This demonstration page uses our WeatherBlox Daily Observations layout. Learn more.

Left ArrowRight Arrow

34.02893, -84.19858

Hourly Observations for July 13, 2021

Temp ( °F °C ) Dew Point ( °F °C ) Humidity (%) Winds ( mph kmh ) Pressure ( in mb ) Visibility ( mi km ) Precip ( " mm )
12:26 am 00:26 Mostly Clear 68 20 67 19.4 96 96 VRB 5 7 30.23 1024 10 16 0.00 0.00
12:39 am 00:39 Mostly Cloudy 69 20.6 67 19.4 93 93 Calm 30.22 1023 10 16 0.00 0.00
12:53 am 00:53 Mostly Cloudy 69 20.6 67 19.4 93 93 Calm 30.19 1022 10 16 0.00 0.00
1:13 am 01:13 Mostly Clear 69 20.6 67 19.4 93 93 Calm 30.20 1023 10 16 0.00 0.00
1:53 am 01:53 Mostly Clear 68 20 67 19.4 96 96 Calm 30.17 1022 10 16 0.00 0.00
2:22 am 02:22 Mostly Cloudy 68 20 67 19.4 96 96 WSW 5 7 30.19 1022 10 16 0.00 0.00
2:53 am 02:53 Mostly Cloudy 68 20 68 20 100 100 S 5 7 30.19 1022 10 16 0.00 0.00
3:53 am 03:53 Cloudy 69 20.6 68 20 96 96 SW 3 6 30.19 1022 10 16 0.00 0.00
4:53 am 04:53 Cloudy 69 20.6 68 20 96 96 S 8 13 30.20 1023 10 16 0.00 0.00
5:48 am 05:48 Cloudy 70 21 68 20 94 94 Calm 30.21 1023 10 16 0.00 0.00
5:53 am 05:53 Cloudy 69 20.6 68 20 96 96 Calm 30.20 1023 10 16 0.00 0.00
6:18 am 06:18 Mostly Cloudy 69 20.6 68 20 96 96 Calm 30.22 1023 10 16 0.00 0.00
6:53 am 06:53 Mostly Cloudy 69 20.6 68 20 96 96 SSE 3 6 30.22 1023 10 16 0.00 0.00
7:01 am 07:01 Mostly Cloudy 69 20.6 68 20 96 96 Calm 30.23 1024 10 16 0.00 0.00
7:53 am 07:53 Mostly Cloudy 70 21.1 68 20 93 93 Calm 30.23 1024 10 16 0.00 0.00
8:53 am 08:53 Mostly Sunny 70 21.1 68 20 93 93 SSE 3 6 30.25 1025 10 16 0.00 0.00
9:36 am 09:36 Mostly Cloudy 71 21.7 69 20.6 94 94 SSE 3 6 30.28 1025 10 16 0.00 0.00
9:53 am 09:53 Mostly Cloudy 72 22.2 69 20.6 91 91 SSE 5 7 30.27 1025 10 16 0.00 0.00
10:53 am 10:53 Mostly Cloudy 73 22.8 69 20.6 87 87 SSE 3 6 30.28 1025 10 16 0.00 0.00
11:53 am 11:53 Cloudy 75 23.9 69 20.6 82 82 S 3 6 30.28 1025 10 16 0.00 0.00
12:18 pm 12:18 Partly Cloudy 77 25 69 20.6 77 77 Calm 30.28 1025 10 16 0.00 0.00
12:30 pm 12:30 Mostly Cloudy 77 25 70 21.1 79 79 S 6 9 30.28 1025 10 16 0.00 0.00
12:53 pm 12:53 Cloudy 77 25 70 21.1 79 79 SSE 5 7 30.28 1025 10 16 0.00 0.00
1:53 pm 13:53 Mostly Cloudy 80 26.7 70 21.1 71 71 S 6 9 30.26 1025 10 16 0.00 0.00
2:53 pm 14:53 Mostly Cloudy 82 27.8 69 20.6 65 65 SSE 5 7 30.24 1024 10 16 0.00 0.00
3:53 pm 15:53 Mostly Cloudy 83 28.3 69 20.6 63 63 SSE 5 7 30.20 1023 10 16 0.00 0.00
4:00 pm 16:00 Mostly Cloudy 82 27.8 69 20.6 65 65 SSE 8 13 30.20 1023 10 16 0.00 0.00
4:53 pm 16:53 Sunny 83 28.3 70 21.1 65 65 SSE 8 13 30.19 1023 10 16 0.00 0.00
5:53 pm 17:53 Partly Cloudy 83 28.3 69 20.6 63 63 VRB 5 7 30.20 1023 10 16 0.00 0.00
6:53 pm 18:53 Partly Cloudy 80 26.7 67 19.4 64 64 SSE 7 11 30.20 1023 10 16 0.00 0.00
7:03 pm 19:03 Mostly Cloudy with Nearby Thunderstorms 80 26.7 67 19.4 64 64 SSW 6 9 30.20 1023 10 16 0.00 0.00
7:14 pm 19:14 Mostly Cloudy with Thunderstorms 78 25.6 69 20.6 74 74 NW 12 19 30.20 1023 10 16 0.00 0.00
7:29 pm 19:29 Cloudy with Nearby Thunderstorms 78 25.6 69 20.6 74 74 NW 6 9 30.20 1023 10 16 0.00 0.00
7:38 pm 19:38 Mostly Cloudy 77 25 69 20.6 77 77 NNW 3 6 30.21 1023 10 16 0.00 0.00
7:53 pm 19:53 Cloudy 77 25 69 20.6 77 77 N 3 6 30.22 1023 10 16 0.00 0.00
8:53 pm 20:53 Partly Cloudy 75 23.9 69 20.6 82 82 Calm 30.21 1023 10 16 0.00 0.00
9:53 pm 21:53 Cloudy 74 23.3 70 21.1 88 88 SSE 3 6 30.23 1024 10 16 0.00 0.00
10:53 pm 22:53 Clear 73 22.8 71 21.7 94 94 Calm 30.24 1024 10 16 0.00 0.00
11:53 pm 23:53 Clear 72 22.2 70 21.1 94 94 Calm 30.24 1024 10 16 0.00 0.00

Powered by AerisWeather